FIN6RW EFHK-EVRA

Flight info

Callsign FIN6RW
Flight time 0h 54m
Altitude 20000
Route KOIVU DCT LARTI DCT NAVOT DCT LUTAL
Aircraft AT75/M-SDFGIRY/S

Departure

Time 2026-04-26 14:48
Airport Helsinki Vantaa Airport (EFHK)

Arrival

Time 2026-04-26 15:42
Airport Riga International Airport (EVRA)
Time Latitude Longitude Altitude Speed Heading
2026-04-26 14:18 60.31302 24.97536 160 ft 0 kts 275°
2026-04-26 14:39 60.31301 24.97568 159 ft 6 kts 274°
2026-04-26 14:40 60.31291 24.97677 157 ft 0 kts 327°
2026-04-26 14:40 60.31298 24.97675 157 ft 3 kts 354°
2026-04-26 14:40 60.31331 24.97679 156 ft 9 kts
2026-04-26 14:40 60.31373 24.97711 154 ft 6 kts 49°
2026-04-26 14:41 60.31410 24.97843 152 ft 1 kts 64°
2026-04-26 14:41 60.31415 24.97861 152 ft 0 kts 63°
2026-04-26 14:44 60.31422 24.97890 152 ft 5 kts 63°
2026-04-26 14:44 60.31470 24.98022 151 ft 14 kts 27°
2026-04-26 14:45 60.31508 24.98014 150 ft 0 kts 332°
2026-04-26 14:47 60.31741 24.97771 149 ft 68 kts 332°
2026-04-26 14:47 60.32285 24.97189 335 ft 97 kts 330°
2026-04-26 14:48 60.32822 24.96353 878 ft 104 kts 308°
2026-04-26 14:48 60.32886 24.95322 1223 ft 129 kts 269°
2026-04-26 14:48 60.32413 24.93590 1722 ft 145 kts 249°
2026-04-26 14:48 60.31885 24.91794 2185 ft 151 kts 258°
2026-04-26 14:49 60.31456 24.89879 2831 ft 151 kts 258°
2026-04-26 14:49 60.31048 24.87963 3426 ft 150 kts 257°
2026-04-26 14:49 60.30528 24.85992 3567 ft 170 kts 257°
2026-04-26 14:49 60.29729 24.83981 3840 ft 189 kts 231°
2026-04-26 14:50 60.28786 24.82119 4361 ft 191 kts 235°
2026-04-26 14:50 60.27889 24.80130 4837 ft 193 kts 241°
2026-04-26 14:50 60.26999 24.78140 5373 ft 200 kts 214°
2026-04-26 14:50 60.25661 24.77446 6066 ft 198 kts 192°
2026-04-26 14:51 60.24352 24.76951 6647 ft 184 kts 217°
2026-04-26 14:51 60.23279 24.75704 7080 ft 184 kts 220°
2026-04-26 14:51 60.22155 24.74318 7357 ft 203 kts 218°
2026-04-26 14:51 60.20807 24.73359 7937 ft 205 kts 194°
2026-04-26 14:52 60.19412 24.73015 8599 ft 199 kts 189°
2026-04-26 14:52 60.18030 24.72881 9171 ft 199 kts 186°
2026-04-26 14:52 60.16642 24.72831 9737 ft 200 kts 185°
2026-04-26 14:52 60.15254 24.72794 10282 ft 199 kts 185°
2026-04-26 14:53 60.13885 24.72686 10706 ft 201 kts 188°
2026-04-26 14:53 60.12425 24.72426 10752 ft 218 kts 190°
2026-04-26 14:53 60.10905 24.72090 11043 ft 220 kts 190°
2026-04-26 14:53 60.09378 24.71765 11365 ft 222 kts 189°
2026-04-26 14:54 60.07842 24.71457 11691 ft 222 kts 189°
2026-04-26 14:54 60.06301 24.71130 11998 ft 224 kts 189°
2026-04-26 14:54 60.04749 24.70800 12319 ft 225 kts 189°
2026-04-26 14:54 60.03229 24.70482 13036 ft 215 kts 189°
2026-04-26 14:55 60.01771 24.70178 13716 ft 208 kts 188°
2026-04-26 14:55 60.00331 24.69879 14175 ft 211 kts 188°
2026-04-26 14:55 59.98852 24.69567 14495 ft 218 kts 189°
2026-04-26 14:55 59.97291 24.69226 14521 ft 231 kts 189°
2026-04-26 14:56 59.95689 24.68870 14750 ft 233 kts 189°
2026-04-26 14:56 59.94071 24.68510 14997 ft 234 kts 189°
2026-04-26 14:56 59.92453 24.68161 15263 ft 234 kts 189°
2026-04-26 14:56 59.90854 24.67824 15595 ft 230 kts 188°
2026-04-26 14:57 59.89249 24.67497 15771 ft 233 kts 188°
2026-04-26 14:57 59.87635 24.67167 16010 ft 234 kts 189°
2026-04-26 14:57 59.86008 24.66838 16236 ft 235 kts 189°
2026-04-26 14:57 59.84379 24.66500 16461 ft 236 kts 190°
2026-04-26 14:58 59.82775 24.65917 16720 ft 234 kts 197°
2026-04-26 14:58 59.81200 24.65108 16965 ft 234 kts 199°
2026-04-26 14:58 59.79666 24.64291 17608 ft 224 kts 198°
2026-04-26 14:58 59.78172 24.63536 18166 ft 221 kts 198°
2026-04-26 14:59 59.76671 24.62797 18459 ft 228 kts 198°
2026-04-26 14:59 59.75116 24.62037 18833 ft 232 kts 198°
2026-04-26 14:59 59.73542 24.61284 19239 ft 233 kts 198°
2026-04-26 14:59 59.72468 24.60785 19474 ft 235 kts 197°
2026-04-26 15:00 59.70320 24.59816 19520 ft 244 kts 197°
2026-04-26 15:00 59.68658 24.59083 19631 ft 245 kts 197°
2026-04-26 15:00 59.67008 24.58325 19866 ft 241 kts 198°
2026-04-26 15:00 59.65397 24.57515 20127 ft 240 kts 199°
2026-04-26 15:01 59.63763 24.56647 20418 ft 245 kts 199°
2026-04-26 15:01 59.62110 24.55778 20824 ft 247 kts 199°
2026-04-26 15:01 59.60440 24.54937 21205 ft 248 kts 199°
2026-04-26 15:01 59.58795 24.54075 21607 ft 247 kts 202°
2026-04-26 15:02 59.57090 24.53106 21745 ft 256 kts 202°
2026-04-26 15:02 59.55353 24.52119 21793 ft 263 kts 201°
2026-04-26 15:02 59.53566 24.51161 21812 ft 272 kts 200°
2026-04-26 15:02 59.51689 24.50197 21823 ft 286 kts 200°
2026-04-26 15:03 59.49719 24.49187 21826 ft 298 kts 200°
2026-04-26 15:03 59.47677 24.48141 21827 ft 308 kts 200°
2026-04-26 15:03 59.45580 24.47065 21828 ft 316 kts 199°
2026-04-26 15:03 59.43430 24.45962 21825 ft 322 kts 199°
2026-04-26 15:04 59.41258 24.44852 21823 ft 322 kts 199°
2026-04-26 15:04 59.39096 24.43742 21821 ft 319 kts 200°
2026-04-26 15:04 59.36956 24.42644 21819 ft 318 kts 199°
2026-04-26 15:04 59.34799 24.41533 21820 ft 323 kts 200°
2026-04-26 15:05 59.32616 24.40520 21820 ft 324 kts 195°
2026-04-26 15:05 59.31141 24.40040 21821 ft 323 kts 193°
2026-04-26 15:05 59.28197 24.39164 21819 ft 316 kts 193°
2026-04-26 15:05 59.26021 24.38456 21824 ft 320 kts 194°
2026-04-26 15:06 59.23811 24.37652 21823 ft 326 kts 195°
2026-04-26 15:06 59.21567 24.36836 21857 ft 330 kts 195°
2026-04-26 15:06 59.19294 24.36023 21855 ft 334 kts 194°
2026-04-26 15:06 59.16996 24.35209 21854 ft 337 kts 194°
2026-04-26 15:07 59.12349 24.33554 21849 ft 341 kts 194°
2026-04-26 15:07 59.10008 24.32722 21848 ft 343 kts 194°
2026-04-26 15:07 59.07657 24.31891 21871 ft 343 kts 194°
2026-04-26 15:08 59.05308 24.31059 21839 ft 343 kts 193°
2026-04-26 15:08 59.02966 24.30235 21822 ft 342 kts 194°
2026-04-26 15:08 59.00625 24.29401 21829 ft 342 kts 194°
2026-04-26 15:08 58.98314 24.28585 21832 ft 342 kts 194°
2026-04-26 15:09 58.95972 24.27761 21833 ft 342 kts 194°
2026-04-26 15:09 58.93628 24.26933 21833 ft 343 kts 194°
2026-04-26 15:09 58.91279 24.26107 21839 ft 343 kts 194°
2026-04-26 15:09 58.88934 24.25283 21839 ft 343 kts 194°
2026-04-26 15:10 58.86586 24.24457 21845 ft 343 kts 194°
2026-04-26 15:10 58.85000 24.23901 21845 ft 343 kts 194°
2026-04-26 15:10 58.81887 24.22815 21846 ft 343 kts 194°
2026-04-26 15:10 58.79540 24.21993 21853 ft 343 kts 194°
2026-04-26 15:11 58.77190 24.21169 21855 ft 343 kts 194°
2026-04-26 15:11 58.74836 24.20349 21835 ft 344 kts 194°
2026-04-26 15:11 58.72480 24.19524 21846 ft 345 kts 195°
2026-04-26 15:11 58.70114 24.18692 21851 ft 346 kts 195°
2026-04-26 15:12 58.67738 24.17868 21859 ft 347 kts 194°
2026-04-26 15:12 58.65356 24.17049 21861 ft 348 kts 194°
2026-04-26 15:12 58.62968 24.16229 21862 ft 349 kts 194°
2026-04-26 15:12 58.60577 24.15403 21861 ft 349 kts 194°
2026-04-26 15:13 58.58185 24.14577 21867 ft 350 kts 194°
2026-04-26 15:13 58.55787 24.13750 21867 ft 350 kts 194°
2026-04-26 15:13 58.53393 24.12925 21867 ft 350 kts 194°
2026-04-26 15:13 58.50994 24.12101 21867 ft 350 kts 194°
2026-04-26 15:14 58.48591 24.11276 21869 ft 351 kts 194°
2026-04-26 15:14 58.46225 24.10467 21852 ft 351 kts 195°
2026-04-26 15:14 58.43821 24.09626 21867 ft 352 kts 195°
2026-04-26 15:14 58.41405 24.08791 21874 ft 353 kts 195°
2026-04-26 15:15 58.38986 24.07971 21877 ft 354 kts 195°
2026-04-26 15:15 58.36556 24.07150 21877 ft 355 kts 195°
2026-04-26 15:15 58.34124 24.06318 21888 ft 356 kts 195°
2026-04-26 15:15 58.31683 24.05489 21890 ft 356 kts 195°
2026-04-26 15:16 58.29246 24.04662 21886 ft 356 kts 195°
2026-04-26 15:16 58.26801 24.03832 21886 ft 357 kts 195°
2026-04-26 15:16 58.24355 24.03007 21887 ft 357 kts 195°
2026-04-26 15:16 58.21912 24.02178 21897 ft 357 kts 195°
2026-04-26 15:17 58.19464 24.01353 21898 ft 357 kts 195°
2026-04-26 15:17 58.17842 24.00810 21867 ft 358 kts 195°
2026-04-26 15:17 58.14562 23.99676 21887 ft 359 kts 196°
2026-04-26 15:17 58.12097 23.98841 21909 ft 361 kts 195°
2026-04-26 15:18 58.09618 23.98020 21907 ft 362 kts 195°
2026-04-26 15:18 58.07141 23.97189 21907 ft 363 kts 195°
2026-04-26 15:18 58.04637 23.96463 21949 ft 366 kts 188°
2026-04-26 15:18 58.02097 23.96364 21923 ft 365 kts 182°
2026-04-26 15:19 57.99557 23.96437 21914 ft 364 kts 182°
2026-04-26 15:19 57.97036 23.96391 21911 ft 362 kts 185°
2026-04-26 15:19 57.94529 23.96171 21909 ft 360 kts 187°
2026-04-26 15:19 57.92025 23.95918 21909 ft 360 kts 187°
2026-04-26 15:20 57.89522 23.95673 21695 ft 358 kts 187°
2026-04-26 15:20 57.87129 23.95471 21357 ft 340 kts 186°
2026-04-26 15:20 57.84745 23.95296 21027 ft 346 kts 186°
2026-04-26 15:20 57.82323 23.95117 20710 ft 350 kts 186°
2026-04-26 15:21 57.79884 23.94941 20389 ft 352 kts 186°
2026-04-26 15:21 57.77439 23.94574 19957 ft 354 kts 192°
2026-04-26 15:21 57.74992 23.93815 19506 ft 358 kts 194°
2026-04-26 15:21 57.72558 23.93065 19223 ft 349 kts 192°
2026-04-26 15:22 57.70177 23.92481 18938 ft 341 kts 190°
2026-04-26 15:22 57.67846 23.91975 18640 ft 334 kts 190°
2026-04-26 15:22 57.65559 23.91481 18345 ft 328 kts 190°
2026-04-26 15:22 57.63338 23.90996 18020 ft 323 kts 190°
2026-04-26 15:23 57.61119 23.90494 17660 ft 319 kts 190°
2026-04-26 15:23 57.58883 23.89961 17165 ft 321 kts 192°
2026-04-26 15:23 57.56689 23.89418 16720 ft 323 kts 191°
2026-04-26 15:23 57.54453 23.88888 16272 ft 324 kts 191°
2026-04-26 15:24 57.52213 23.88372 15831 ft 325 kts 191°
2026-04-26 15:24 57.49970 23.87847 15397 ft 325 kts 191°
2026-04-26 15:24 57.47729 23.87324 14971 ft 324 kts 191°
2026-04-26 15:24 57.45504 23.86803 14552 ft 320 kts 191°
2026-04-26 15:25 57.43330 23.86288 14154 ft 311 kts 191°
2026-04-26 15:25 57.41890 23.85953 13891 ft 307 kts 191°
2026-04-26 15:25 57.39143 23.85309 13336 ft 301 kts 191°
2026-04-26 15:25 57.37081 23.84827 12919 ft 297 kts 191°
2026-04-26 15:26 57.35047 23.84352 12516 ft 293 kts 191°
2026-04-26 15:26 57.33030 23.83882 12125 ft 290 kts 191°
2026-04-26 15:26 57.31033 23.83419 11725 ft 288 kts 192°
2026-04-26 15:26 57.29048 23.82943 11357 ft 287 kts 192°
2026-04-26 15:27 57.27059 23.82483 11000 ft 289 kts 192°
2026-04-26 15:27 57.25056 23.82016 10638 ft 291 kts 191°
2026-04-26 15:27 57.23043 23.81546 10287 ft 292 kts 191°
2026-04-26 15:27 57.21026 23.81078 9941 ft 293 kts 191°
2026-04-26 15:28 57.19000 23.80611 9564 ft 293 kts 192°
2026-04-26 15:28 57.16975 23.80146 9185 ft 293 kts 191°
2026-04-26 15:28 57.14956 23.79680 8828 ft 292 kts 191°
2026-04-26 15:28 57.12942 23.79216 8453 ft 292 kts 191°
2026-04-26 15:29 57.10911 23.78960 8052 ft 294 kts 185°
2026-04-26 15:29 57.08868 23.78903 7665 ft 290 kts 184°
2026-04-26 15:29 57.04958 23.78789 6913 ft 273 kts 185°
2026-04-26 15:30 57.01158 23.78701 6197 ft 274 kts 185°
2026-04-26 15:30 56.99271 23.78674 5841 ft 270 kts 185°
2026-04-26 15:30 56.97407 23.78656 5505 ft 266 kts 185°
2026-04-26 15:31 56.95568 23.78648 5181 ft 263 kts 185°
2026-04-26 15:31 56.91960 23.78641 4563 ft 256 kts 185°
2026-04-26 15:31 56.90191 23.78643 4253 ft 253 kts 185°
2026-04-26 15:32 56.87849 23.78647 3843 ft 249 kts 185°
2026-04-26 15:32 56.84999 23.78605 3405 ft 243 kts 186°
2026-04-26 15:32 56.83320 23.78537 3176 ft 241 kts 186°
2026-04-26 15:33 56.81653 23.78415 2941 ft 240 kts 188°
2026-04-26 15:33 56.79990 23.78251 2712 ft 239 kts 188°
2026-04-26 15:33 56.78331 23.78074 2495 ft 239 kts 188°
2026-04-26 15:33 56.76677 23.77896 2289 ft 238 kts 188°
2026-04-26 15:34 56.75029 23.77718 2142 ft 235 kts 188°
2026-04-26 15:34 56.73443 23.77579 2053 ft 227 kts 183°
2026-04-26 15:34 56.71946 23.78497 2024 ft 227 kts 141°
2026-04-26 15:34 56.71067 23.80703 2025 ft 214 kts 101°
2026-04-26 15:35 56.70589 23.83191 2024 ft 211 kts 116°
2026-04-26 15:35 56.69859 23.85457 2020 ft 202 kts 97°
2026-04-26 15:35 56.69955 23.87807 2030 ft 178 kts 51°
2026-04-26 15:35 56.70635 23.89578 2019 ft 171 kts 41°
2026-04-26 15:36 56.71361 23.91304 2020 ft 172 kts 41°
2026-04-26 15:36 56.72119 23.92979 2019 ft 168 kts 35°
2026-04-26 15:36 56.73080 23.93784 2031 ft 145 kts
2026-04-26 15:36 56.74101 23.94067 2014 ft 160 kts
2026-04-26 15:37 56.75223 23.94340 2018 ft 164 kts
2026-04-26 15:37 56.76366 23.94562 2018 ft 166 kts 359°
2026-04-26 15:37 56.77127 23.94620 2014 ft 164 kts 354°
2026-04-26 15:37 56.78673 23.94934 2021 ft 171 kts
2026-04-26 15:38 56.79413 23.95092 2021 ft 151 kts 358°
2026-04-26 15:38 56.80383 23.95191 2027 ft 131 kts 356°
2026-04-26 15:38 56.81283 23.95268 1927 ft 135 kts 356°
2026-04-26 15:38 56.82239 23.95393 1748 ft 140 kts 359°
2026-04-26 15:39 56.83210 23.95586 1552 ft 136 kts
2026-04-26 15:39 56.84102 23.95778 1340 ft 123 kts 358°
2026-04-26 15:39 56.84891 23.95898 1153 ft 105 kts 358°
2026-04-26 15:39 56.85360 23.95976 1037 ft 100 kts 357°
2026-04-26 15:40 56.86261 23.96123 778 ft 96 kts 357°
2026-04-26 15:40 56.86966 23.96222 648 ft 104 kts 358°
2026-04-26 15:40 56.87644 23.96373 614 ft 97 kts 357°
2026-04-26 15:40 56.88328 23.96462 518 ft 99 kts 356°
2026-04-26 15:41 56.89042 23.96553 409 ft 103 kts 357°
2026-04-26 15:41 56.89759 23.96668 252 ft 104 kts
2026-04-26 15:41 56.90462 23.96807 120 ft 101 kts 354°
2026-04-26 15:41 56.91142 23.96919 37 ft 87 kts 357°
2026-04-26 15:42 56.91468 23.96963 35 ft 28 kts
2026-04-26 15:42 56.91632 23.96993 34 ft 21 kts
2026-04-26 15:42 56.91723 23.97076 33 ft 12 kts 65°
2026-04-26 15:42 56.91714 23.97267 34 ft 19 kts 96°
2026-04-26 15:43 56.91718 23.97393 34 ft 11 kts 51°
2026-04-26 15:43 56.91761 23.97436 34 ft 6 kts 58°
2026-04-26 15:43 56.91757 23.97517 34 ft 0 kts 98°